Satellite: NOAA-18
Catalog number: 28654
Epoch time:      06221.81712735
Element set:    0588
Inclination:      098.7884 deg
RA of node:       163.9517 deg
Eccentricity:    0.0015305
Arg of perigee:   069.5464 deg
Mean anomaly:     290.7342 deg
Mean motion:   14.10982564 rev/day
Decay rate:       3.47e-06 rev/day^2
Epoch rev:           06294
Checksum:              336

/EX
SB KEPS @ AMSAT  $ORB06222.M
Orbital Elements  06222.MISC

HR AMSAT ORBITAL ELEMENTS FOR MANNED AND MISCELLANEOUS SATELLITES
FROM WA5QGD FORT WORTH,TX August 10, 2006
Send SUBSCRIBE KEPS/UNSUBSCRIBE KEPS to majordomo@amsat.org only
BID: ORB06222.M
TO ALL RADIO AMATEURS BT

Satellite: HUBBLE
Catalog number: 20580
Epoch time:      06221.65488401
Element set:    0674
Inclination:      028.4682 deg
RA of node:       061.3302 deg
Eccentricity:    0.0003383
Arg of perigee:   034.2930 deg
Mean anomaly:     325.7881 deg
Mean motion:   15.00073012 rev/day
Decay rate:       3.36e-06 rev/day^2
Epoch rev:           69313
Checksum:              258

Satellite: UARS
Catalog number: 21701
Epoch time:      06222.83096731
Element set:     840
Inclination:      056.9755 deg
RA of node:       216.8315 deg
Eccentricity:    0.0098044
Arg of perigee:   316.9186 deg
Mean anomaly:     042.4245 deg
Mean motion:   15.44154281 rev/day
Decay rate:      5.142e-05 rev/day^2
Epoch rev:           81774
Checksum:              297

Satellite: PO-34
Catalog number: 25520
Epoch time:      06221.84299597
Element set:     533
Inclination:      028.4578 deg
RA of node:       032.1810 deg
Eccentricity:    0.0005736
Arg of perigee:   104.7969 deg
Mean anomaly:     255.3264 deg
Mean motion:   15.16760061 rev/day
Decay rate:       3.99e-06 rev/day^2
Epoch rev:           43020
Checksum:              302

Satellite: ISS
Catalog number: 25544
Epoch time:      06222.78373843
Element set:     474
Inclination:      051.6329 deg
RA of node:       266.1781 deg
Eccentricity:    0.0007863
Arg of perigee:   175.4527 deg
Mean anomaly:     349.8246 deg
Mean motion:   15.76471502 rev/day
Decay rate:     1.2476e-04 rev/day^2
Epoch rev:           44177
Checksum:              326

Satellite: OO-38
Catalog number: 26063
Epoch time:      06221.74299246
Element set:    0689
Inclination:      100.1880 deg
RA of node:       162.4263 deg
Eccentricity:    0.0036803
Arg of perigee:   317.1633 deg
Mean anomaly:     042.6684 deg
Mean motion:   14.35773222 rev/day
Decay rate:       -1.8e-07 rev/day^2
Epoch rev:           34236
Checksum:              296

Satellite: NO-45
Catalog number: 26932
Epoch time:      06221.95728458
Element set:    0382
Inclination:      067.0532 deg
RA of node:       228.8930 deg
Eccentricity:    0.0007986
Arg of perigee:   244.6109 deg
Mean anomaly:     115.4175 deg
Mean motion:   14.29531464 rev/day
Decay rate:       -4.3e-07 rev/day^2
Epoch rev:           25365
Checksum:              317

Satellite: UWE-1
Catalog number: 28892
Epoch time:      06221.74466389
Element set:     522
Inclination:      098.1578 deg
RA of node:       119.0813 deg
Eccentricity:    0.0018010
Arg of perigee:   007.5586 deg
Mean anomaly:     352.5888 deg
Mean motion:   14.59380838 rev/day
Decay rate:        8.5e-07 rev/day^2
Epoch rev:            4178
Checksum:              331

Satellite: CO-58
Catalog number: 28895
Epoch time:      06221.73390863
Element set:     506
Inclination:      098.1587 deg
RA of node:       119.1694 deg
Eccentricity:    0.0018505
Arg of perigee:   007.9067 deg
Mean anomaly:     352.2460 deg
Mean motion:   14.59432235 rev/day
Decay rate:       1.84e-06 rev/day^2
Epoch rev:            4166
Checksum:              323

Satellite: NCUBE2
Catalog number: 28897
Epoch time:      06221.63694499
Element set:     103
Inclination:      098.1599 deg
RA of node:       119.0587 deg
Eccentricity:    0.0018230
Arg of perigee:   009.3159 deg
Mean anomaly:     350.8365 deg
Mean motion:   14.59588115 rev/day
Decay rate:       1.18e-06 rev/day^2
Epoch rev:            3392
Checksum:              327

/EX



----
Via the keps mailing list at AMSAT.ORG courtesy of AMSAT-NA.
To unsubscribe, send "unsubscribe keps" to Majordomo@amsat.org

--- ViaMAIL!/WC v1.60d
 * Origin: Chowdanet (401-724-4410) telnet://chowdanet.com  (1:323/120)